{"data":{"norad_id":49308,"intl_designator":"2021-090AF","name":"ONEWEB-0382","alt_names":[],"object_type":"PAYLOAD","status":"ACTIVE","operator":null,"country":"UK","launch_date":"2021-10-14","launch_site_code":"VOSTO","launch_vehicle":null,"mission":null,"orbit_class":"UNKNOWN","rcs_meters":null,"size_class":null,"mass_kg":null,"dimensions":null,"purposes":["comms"],"wikipedia_slug":null,"has_3d_model":false,"image_url":null,"decayed_at":null,"tle_current":{"epoch":"2026-05-25T02:46:11.024832Z","epoch_age_seconds":68268,"freshness":"FRESH","line1":"1 49308U 21090AF  26145.11540538 -.00000019  00000+0 -77747-4 0  9998","line2":"2 49308  87.9175 279.0347 0002197  95.3461 264.7923 13.20771387226778","mean_motion":13.20771387,"eccentricity":0.0002197,"inclination_deg":87.9175,"raan_deg":279.0347,"arg_perigee_deg":95.3461,"mean_anomaly_deg":264.7923,"bstar":-7.7747e-5,"rev_number":22677,"period_min":109.02719533248,"perigee_km":1180.1140853883,"apogee_km":1183.4359107203,"semimajor_km":7559.9119980543,"source":"CELESTRAK","updated_at":"2026-05-25T13:38:22.525874Z"}}}